[[[{"header":{"parameterUnit":"kt","parameterCategory":2,"dx":1,"dy":1,"la1":30.253999710083008,"la2":30.299108505249023,"lo1":-89.0895004272461,"lo2":-89.04439544677734,"nx":28,"ny":28,"refTime":"2022-10-30T21:00:00:Z","depth":0,"parameterNumber":1,"parameterNumberName":"U-component_of_WINDS"},"data":[3.2175,3.2276,3.2287,3.2408,3.2439,3.2523,3.2557,3.2602,3.2641,3.2743,3.2804,3.2826,3.2869,3.2944,3.3011,3.3019,3.3047,3.3075,3.308,3.2943,3.2924,3.2907,3.2883,3.3081,3.3082,3.322,3.3222,3.3223,3.2075,3.2106,3.2173,3.2245,3.2303,3.2282,3.2338,3.2388,3.2464,3.2512,3.2573,3.2664,3.2737,3.2771,3.2844,3.2892,3.2886,3.2911,3.2907,3.2914,3.2768,3.2743,3.2914,3.2914,3.2914,3.2914,3.2914,3.2914,3.1896,3.1956,3.2006,3.2079,3.2118,3.2166,3.2226,3.225,3.2316,3.2392,3.2392,3.2479,3.2529,3.2621,3.2655,3.2723,3.2697,3.2727,3.2735,3.2742,3.2749,3.2548,3.2736,3.2735,3.2735,3.2734,3.2734,0,3.1768,3.1773,3.1837,3.1906,3.1959,3.2013,3.2064,3.2101,3.2114,3.2168,3.2247,3.2294,3.2387,3.2462,3.2532,3.2561,3.2544,3.2544,3.2565,3.2566,3.2559,3.2564,3.2325,3.2538,3.2536,3.2535,3.2534,3.2534,3.1588,3.1657,3.1714,3.1758,3.1788,3.1859,3.1903,3.1909,3.1956,3.202,3.2073,3.2148,3.2209,3.2333,3.2361,3.243,3.2423,3.2503,3.2433,3.2432,3.2424,3.242,3.2427,3.2516,3.2519,3.252,3.2522,0,3.1486,3.1503,3.1612,3.1661,3.1675,3.1747,3.1789,3.185,3.1866,3.1952,3.1972,3.1998,3.2075,3.2089,3.218,3.2185,3.2305,3.2296,3.2288,3.2287,3.2361,3.2354,3.2596,3.2629,3.2423,3.2425,3.2427,0,3.1339,3.1429,3.1448,3.1511,3.1611,3.1614,3.1714,3.1737,3.1779,3.1847,3.183,3.1893,3.1901,3.1967,3.1975,3.2075,3.2092,3.2102,3.2103,3.2104,3.2102,3.2128,3.2118,3.2102,3.2101,3.2099,3.2098,0,3.1178,3.1293,3.1395,3.1423,3.1484,3.1532,3.1559,3.1606,3.1649,3.1707,3.1735,3.1803,3.184,3.1894,3.1902,3.1854,3.2025,3.1961,3.2035,3.2035,3.2072,3.2069,3.2281,3.2097,3.2097,3.2096,3.2096,0,3.1061,3.1119,3.1264,3.1314,3.1344,3.1411,3.1478,3.1538,3.1589,3.1597,3.1643,3.1633,3.1721,3.1657,3.1779,3.1714,3.1752,3.1769,3.1775,3.1783,3.171,3.1828,3.2028,3.2049,3.1792,3.1789,3.1787,0,3.0872,3.1022,3.1025,3.1163,3.1234,3.121,3.1284,3.1329,3.1347,3.141,3.1429,3.1501,3.1456,3.148,3.1539,3.1561,3.1646,3.155,3.1642,3.1646,3.163,3.1814,3.184,3.1983,3.1755,3.1758,3.1761,0,3.0727,3.0799,3.0823,3.0855,3.0914,3.0973,3.1059,3.113,3.1172,3.1224,3.1296,3.1397,3.1367,3.1407,3.1405,3.1466,3.1589,3.1425,3.1426,3.1454,3.1739,3.1764,3.1788,3.1575,3.1579,3.1582,3.1735,0,3.0548,3.0624,3.069,3.0762,3.0809,3.0896,3.0909,3.0957,3.0951,3.0967,3.1073,3.1112,3.1184,3.1215,3.1208,3.1342,3.1322,3.1288,3.1226,3.1347,3.1398,3.1418,3.1149,3.1148,3.1146,3.1145,0,0,3.0364,3.0473,3.0472,3.0555,3.0595,3.0567,3.0658,3.0694,3.0766,3.0795,3.076,3.0908,3.0941,3.1068,3.1107,3.1136,3.1161,3.1118,3.1289,3.1305,3.132,3.1374,3.1395,3.1142,3.1142,3.1141,3.1141,0,3.03,3.0334,3.0424,3.0461,3.0515,3.0527,3.0549,3.0597,3.0611,3.0714,3.069,3.0755,3.0872,3.0911,3.0946,3.1103,3.1081,3.1124,3.1205,3.1274,3.1292,3.1308,3.1364,3.1385,3.1137,3.1137,3.1137,0,3.016,3.0196,3.024,3.0328,3.0363,3.0437,3.0375,3.0454,3.0509,3.0473,3.0576,3.0599,3.0652,3.077,3.0823,3.0793,3.1007,3.0941,3.0951,3.0957,3.1024,3.1046,3.1065,3.0811,3.081,3.0809,0,0,3.0104,3.0174,3.0213,3.0316,3.0339,3.0358,3.0398,3.0395,3.0442,3.0461,3.049,3.0537,3.0606,3.065,3.0715,3.0843,3.0854,3.09,3.0916,3.0928,3.0941,3.1012,3.1033,3.0805,3.0805,3.0804,0,0,3.0077,3.0126,3.011,3.0231,3.0277,3.0321,3.0384,3.0366,3.0425,3.0416,3.0415,3.0427,3.0538,3.0561,3.05,3.0693,3.0631,3.0646,3.0673,3.0693,3.0708,3.07,3.0441,0,0,0,0,0,3.0018,3.012,3.0105,3.0127,3.0238,3.033,3.0344,3.0345,3.0301,3.0351,3.0372,3.0345,3.0528,3.0474,3.0496,3.0564,3.0747,3.0757,3.0767,3.0832,3.0852,3.087,0,0,0,0,0,0,3.0027,3.0054,3.0102,3.0151,3.0176,3.0326,3.0252,3.0255,3.0296,3.0289,3.0342,3.0347,3.0349,3.0463,3.0482,3.0547,3.0435,3.0751,3.0759,3.0767,3.0839,3.0856,3.087,0,0,0,0,0,3.0034,3.0055,3.0233,3.015,3.0172,3.0197,3.0248,3.025,3.0282,3.0315,3.0319,3.0279,3.0351,3.0368,3.0474,3.0538,3.0421,3.0428,3.0756,3.0763,3.0769,3.0847,0,0,0,0,0,0,3.0039,3.0058,3.0237,3.0244,3.0111,3.0189,3.0201,3.0246,3.0305,3.031,3.0251,3.0245,3.0354,3.0366,3.0379,3.0535,3.041,3.0417,3.0422,3.0762,3.0767,3.0772,0,0,0,0,0,0,3.0046,3.0064,3.024,3.0191,3.0193,3.0181,3.0192,3.0282,3.0306,3.0237,3.0234,3.0247,3.0334,3.0366,3.0376,3.0516,3.0401,3.0408,3.0413,3.0416,3.0766,3.077,0,0,0,0,0,0,3.0053,3.0069,3.019,3.0191,3.0191,3.0266,3.0261,3.0375,3.0263,3.0235,3.0253,3.0249,3.0335,3.0344,3.0373,3.051,3.0515,3.0401,3.0406,3.041,3.0412,0,0,0,0,0,0,0,3.0059,2.9959,3.0198,3.019,3.019,3.0305,3.0307,3.0309,3.0262,3.0258,3.0255,3.0251,3.036,3.0368,3.0376,3.0505,0,0,3.0401,3.0404,0,0,0,0,0,0,0,0,2.9952,2.9957,3.0198,3.0199,3.0201,3.0306,3.0307,3.0309,3.0262,3.0259,3.0255,3.0252,3.0362,3.0369,3.0375,0,0,0,0,0,0,0,0,0,0,0,0,0,0,0,3.0198,3.0199,0,3.0306,3.0307,3.0308,3.0261,3.0259,3.0256,3.0254,3.0364,3.0369,3.0375,0,0,0,0,0,0,0,0,0,0,0,0,0,0,0,0,0,0,0,0,0,0,0,0,0,0,0,0,0,0,0,0,0,0,0,0,0,0,0,0,0,0,0,0,0,0,0,0,0,0,0,0,0,0,0,0,0,0,0,0,0,0,0,0,0,0,0,0,0]}],[{"header":{"parameterUnit":"kt","parameterCategory":2,"dx":1,"dy":1,"la1":30.253999710083008,"la2":30.299108505249023,"lo1":-89.0895004272461,"lo2":-89.04439544677734,"nx":28,"ny":28,"refTime":"2022-10-30T21:00:00:Z","depth":0,"parameterNumber":2,"parameterNumberName":"V-component_of_WINDS"},"data":[-4.0632,-4.0771,-4.0816,-4.0996,-4.1066,-4.1197,-4.1258,-4.1342,-4.1421,-4.1582,-4.1683,-4.1743,-4.1839,-4.1971,-4.2083,-4.2108,-4.2152,-4.2169,-4.2194,-4.2077,-4.2064,-4.2052,-4.2021,-4.2178,-4.2178,-4.2309,-4.231,-4.2311,-4.0544,-4.0615,-4.0723,-4.0858,-4.0951,-4.0962,-4.107,-4.1148,-4.1265,-4.1362,-4.1464,-4.161,-4.1731,-4.1824,-4.1948,-4.2015,-4.2027,-4.2045,-4.2041,-4.2056,-4.1933,-4.19,-4.2033,-4.2033,-4.2033,-4.2033,-4.2033,-4.2033,-4.0395,-4.0476,-4.0584,-4.0702,-4.0782,-4.0872,-4.0958,-4.1029,-4.1136,-4.1271,-4.1304,-4.1437,-4.1543,-4.1715,-4.1783,-4.1889,-4.1877,-4.1911,-4.1919,-4.1927,-4.1929,-4.1735,-4.1912,-4.1912,-4.1912,-4.1911,-4.1911,0,-4.03,-4.0332,-4.0438,-4.0558,-4.0646,-4.0744,-4.0841,-4.0895,-4.0978,-4.1062,-4.1189,-4.1269,-4.1428,-4.1552,-4.1679,-4.1744,-4.1764,-4.1771,-4.1794,-4.178,-4.1751,-4.1768,-4.1565,-4.1765,-4.1764,-4.1763,-4.1762,-4.1762,-4.0153,-4.0242,-4.0376,-4.0445,-4.0509,-4.0619,-4.0694,-4.076,-4.0837,-4.0966,-4.1035,-4.116,-4.1264,-4.1459,-4.1541,-4.166,-4.1671,-4.1742,-4.1689,-4.1672,-4.1672,-4.1666,-4.1676,-4.1751,-4.1752,-4.1753,-4.1754,0,-4.0066,-4.0138,-4.0292,-4.0415,-4.0449,-4.054,-4.0647,-4.0731,-4.0791,-4.0915,-4.0948,-4.1042,-4.1165,-4.1236,-4.1391,-4.1424,-4.1577,-4.1584,-4.1541,-4.1546,-4.1617,-4.1609,-4.1835,-4.1869,-4.1707,-4.1708,-4.171,0,-3.9968,-4.0084,-4.0185,-4.027,-4.0401,-4.0464,-4.0592,-4.0656,-4.0748,-4.0846,-4.088,-4.0972,-4.1048,-4.1151,-4.12,-4.1337,-4.1366,-4.14,-4.1412,-4.1397,-4.1393,-4.1438,-4.143,-4.1434,-4.1433,-4.1432,-4.1431,0,-3.9824,-4.0014,-4.0152,-4.0207,-4.0351,-4.0415,-4.0477,-4.058,-4.0653,-4.0759,-4.0807,-4.0926,-4.099,-4.1082,-4.1144,-4.1105,-4.1313,-4.1273,-4.1348,-4.1346,-4.1389,-4.1385,-4.1569,-4.143,-4.1429,-4.1429,-4.1428,0,-3.9756,-3.9862,-4.0052,-4.0172,-4.0219,-4.0311,-4.0431,-4.0526,-4.0633,-4.067,-4.0753,-4.0784,-4.0909,-4.0864,-4.1037,-4.0969,-4.1031,-4.1075,-4.1082,-4.1097,-4.1044,-4.1137,-4.1305,-4.1325,-4.1111,-4.1109,-4.1107,0,-3.9572,-3.9783,-3.9838,-4.0018,-4.0125,-4.0155,-4.0258,-4.0351,-4.0409,-4.0508,-4.0572,-4.0685,-4.0667,-4.0712,-4.0789,-4.0859,-4.0948,-4.0849,-4.0992,-4.0997,-4.0963,-4.1118,-4.1125,-4.126,-4.1074,-4.1077,-4.108,0,-3.9437,-3.9609,-3.9637,-3.9703,-3.9835,-3.9925,-4.0043,-4.0169,-4.0232,-4.0332,-4.0433,-4.0594,-4.0587,-4.0661,-4.0698,-4.0774,-4.0889,-4.0755,-4.0759,-4.0777,-4.1063,-4.1069,-4.1091,-4.0898,-4.0902,-4.0905,-4.1054,0,-3.9318,-3.9433,-3.9512,-3.9653,-3.9733,-3.9849,-3.9924,-3.9999,-4.0026,-4.0084,-4.0233,-4.0328,-4.0456,-4.05,-4.0527,-4.0678,-4.0664,-4.0654,-4.0615,-4.0716,-4.0767,-4.0787,-4.0533,-4.0532,-4.0532,-4.0531,0,0,-3.9123,-3.9288,-3.9345,-3.9461,-3.9532,-3.9561,-3.9679,-3.9752,-3.9898,-3.9946,-3.9925,-4.0164,-4.0242,-4.0415,-4.0453,-4.0505,-4.0539,-4.05,-4.0667,-4.0682,-4.0696,-4.0749,-4.0769,-4.053,-4.053,-4.053,-4.0529,0,-3.9094,-3.9172,-3.9287,-3.9365,-3.9482,-3.9538,-3.9565,-3.9686,-3.9729,-3.9875,-3.9897,-3.9995,-4.0184,-4.0264,-4.0329,-4.0481,-4.0491,-4.0515,-4.0572,-4.0658,-4.0674,-4.0688,-4.0743,-4.0762,-4.0528,-4.0528,-4.0528,0,-3.8975,-3.9064,-3.9127,-3.929,-3.9367,-3.9476,-3.9453,-3.9569,-3.9651,-3.9676,-3.9821,-3.9883,-3.9995,-4.0149,-4.0221,-4.0204,-4.0444,-4.0381,-4.0387,-4.0396,-4.0484,-4.0503,-4.0519,-4.03,-4.0299,-4.0298,0,0,-3.894,-3.9047,-3.9162,-3.9289,-3.9336,-3.942,-3.9485,-3.9519,-3.9619,-3.9658,-3.9738,-3.9835,-3.9945,-4.0017,-4.0125,-4.0283,-4.0312,-4.035,-4.0361,-4.0369,-4.0383,-4.0473,-4.0491,-4.0293,-4.0293,-4.0293,0,0,-3.8923,-3.9062,-3.9071,-3.9228,-3.9322,-3.9444,-3.9519,-3.9534,-3.9638,-3.9633,-3.9695,-3.9724,-3.9869,-3.9929,-3.9865,-4.0112,-4.0071,-4.0088,-4.0067,-4.0081,-4.0092,-4.0074,-3.9854,0,0,0,0,0,-3.8932,-3.9045,-3.9052,-3.9089,-3.9295,-3.944,-3.9467,-3.9521,-3.9491,-3.955,-3.9619,-3.9625,-3.9908,-3.9852,-3.9889,-3.9959,-4.024,-4.0249,-4.0258,-4.0269,-4.0283,-4.0296,0,0,0,0,0,0,-3.8947,-3.8992,-3.9049,-3.9174,-3.9221,-3.9437,-3.9398,-3.9416,-3.9486,-3.9485,-3.9612,-3.9629,-3.9678,-3.9838,-3.9869,-3.9935,-3.9843,-4.0244,-4.0252,-4.0259,-4.0274,-4.0286,-4.0296,0,0,0,0,0,-3.8959,-3.8996,-3.9311,-3.9173,-3.9214,-3.9313,-3.9394,-3.9409,-3.9464,-3.9571,-3.9589,-3.9498,-3.9678,-3.9709,-3.9857,-3.992,-3.9822,-3.9833,-4.0249,-4.0255,-4.0261,-4.028,0,0,0,0,0,0,-3.8968,-3.901,-3.932,-3.9335,-3.9134,-3.9302,-3.933,-3.9403,-3.9547,-3.9565,-3.946,-3.9458,-3.968,-3.9703,-3.9727,-3.9911,-3.9804,-3.9816,-3.9823,-4.0254,-4.0259,-4.0263,0,0,0,0,0,0,-3.8991,-3.9022,-3.9328,-3.9275,-3.9284,-3.9292,-3.9317,-3.945,-3.9548,-3.9428,-3.943,-3.9457,-3.9645,-3.97,-3.9718,-3.9924,-3.9791,-3.9802,-3.981,-3.9815,-4.0258,-4.0262,0,0,0,0,0,0,-3.9005,-3.9032,-3.9272,-3.9279,-3.9287,-3.9452,-3.941,-3.9618,-3.9503,-3.9421,-3.9494,-3.949,-3.9642,-3.9661,-3.9713,-3.9911,-3.9921,-3.9791,-3.9799,-3.9804,-3.9808,0,0,0,0,0,0,0,-3.9017,-3.8824,-3.9235,-3.9282,-3.9288,-3.9468,-3.9472,-3.9476,-3.9502,-3.9498,-3.9495,-3.9492,-3.9726,-3.9738,-3.9751,-3.9899,0,0,-3.979,-3.9795,0,0,0,0,0,0,0,0,-3.8813,-3.8821,-3.9235,-3.9238,-3.9241,-3.9468,-3.9472,-3.9475,-3.9501,-3.9498,-3.9496,-3.9493,-3.9729,-3.9739,-3.975,0,0,0,0,0,0,0,0,0,0,0,0,0,0,0,-3.9236,-3.9238,0,-3.9469,-3.9472,-3.9474,-3.9501,-3.9499,-3.9496,-3.9494,-3.9732,-3.974,-3.9749,0,0,0,0,0,0,0,0,0,0,0,0,0,0,0,0,0,0,0,0,0,0,0,0,0,0,0,0,0,0,0,0,0,0,0,0,0,0,0,0,0,0,0,0,0,0,0,0,0,0,0,0,0,0,0,0,0,0,0,0,0,0,0,0,0,0,0,0,0]}]]]